Regional Weather Roundup
Issued by NWS Albany, NY

Home | Current Version | Previous Version | Text Only | Print | Product List | Glossary On
Versions: 1 2 3 4 5 6 7 8 9 10 11 12 13 14 15 16 17 18 19 20 21 22 23 24 25 26 27 28 29 30 31 32 33 34 35 36 37 38 39 40 41 42 43 44 45 46 47 48 49 50
000
ASUS41 KALY 291110
RWRALY

NEW YORK STATE HOURLY WEATHER ROUNDUP
NATIONAL WEATHER SERVICE ALBANY NY
700 AM EDT SUN MAR 29 2015

NOTE: "FAIR" INDICATES FEW OR NO CLOUDS BELOW 12,000 FEET WITH NO
SIGNIFICANT WEATHER AND/OR NO OBSTRUCTIONS TO VISIBILITY.

NYZ032-033-038>043-046>054-057>066-NYZ062>081-291200-
EAST


CITY           SKY/WX    TMP DP  RH WIND       PRES   REMARKS
ALBANY         CLEAR     11   5  77 CALM      30.24R
GLENS FALLS    CLEAR     15   7  70 CALM      30.21R
POUGHKEEPSIE   CLEAR     19  10  68 CALM      30.23R
NEWBURGH       CLEAR     18  10  73 W6        30.22R WCI   9
MONTGOMERY     CLEAR     20   5  52 NW7       30.21R WCI  11
WHITE PLAINS   MOCLDY    23   5  46 NW10      30.18R WCI  12
ISLIP          MOCLDY    25  10  53 N10       30.18R WCI  15
NEW YORK CITY  MOCLDY    27   7  42 NW16      30.23R WCI  15
CENTRAL PARK   CLOUDY    25   3  38 NW12      30.24R WCI  14
$$

NYZ005>009-017-018-044>046-055-056-291200-
CENTRAL


CITY           SKY/WX    TMP DP  RH WIND       PRES   REMARKS
FULTON         CLEAR     11   7  84 CALM      30.25R
SYRACUSE       CLEAR     18  12  77 SW7       30.25R WCI   9
ROME           CLEAR      7   3  84 CALM      30.27R
ELMIRA         CLEAR     13   9  84 SW3       30.25R
BINGHAMTON     CLEAR     14  10  84 W6        30.17R WCI   5
MONTICELLO     CLEAR     12   7  79 W7        30.17R WCI   2
$$

NYZ026>034-041>043-291200-
NORTH


CITY           SKY/WX    TMP DP  RH WIND       PRES   REMARKS
WATERTOWN      CLEAR     15   8  73 S3        30.24R
FORT DRUM      NOT AVBL
MASSENA        CLEAR     12   6  77 SW7       30.22R WCI   1
SARANAC LAKE   CLEAR     -9 -14  78 CALM      30.10R
PLATTSBURGH    CLEAR     14   5  67 CALM      30.19R
$$

NYZ001>004-010>016-019>021-291200-
WEST


CITY           SKY/WX    TMP DP  RH WIND       PRES   REMARKS
NIAGARA FALLS  CLEAR     16  11  80 SW8       30.28R WCI   5
BUFFALO        CLEAR     17  11  77 SW7       30.28R WCI   8
DUNKIRK        CLEAR     18  10  71 SW8       30.30R WCI   8
JAMESTOWN      CLEAR     10   7  85 SW6       30.22R WCI   1
WELLSVILLE     CLEAR     11   7  84 W6        30.20R WCI   1
ROCHESTER      CLEAR     18  12  77 W8        30.27R WCI   8
PENN YAN       CLEAR     20  10  65 S7        30.25R WCI  11
$$

             KEY
       WCI = WIND CHILL INDEX
       VSB = VISIBILITY
       HX  = HEAT INDEX
$$


USA.gov is the U.S. government's official web portal to all federal, state and local government web resources and services.